TimeMST,TemperatureF,Dew PointF,Humidity,Sea Level PressureIn,VisibilityMPH,Wind Direction,Wind SpeedMPH,Gust SpeedMPH,PrecipitationIn,Events,Conditions,WindDirDegrees,DateUTC
12:15 AM,30.2,24.8,80,30.11,10.0,Calm,Calm,-,N/A,,Clear,0,2013-11-28 07:15:00
12:35 AM,30.2,23.0,75,30.10,10.0,SSW,3.5,-,N/A,,Clear,210,2013-11-28 07:35:00
12:55 AM,28.4,23.0,80,30.10,10.0,Calm,Calm,-,N/A,,Clear,0,2013-11-28 07:55:00
1:15 AM,30.2,21.2,69,30.10,-9999.0,Calm,Calm,-,N/A,,Clear,0,2013-11-28 08:15:00
1:35 AM,24.8,19.4,80,30.10,10.0,North,3.5,-,N/A,,Clear,10,2013-11-28 08:35:00
1:55 AM,26.6,23.0,86,30.10,10.0,Calm,Calm,-,N/A,,Clear,0,2013-11-28 08:55:00
2:15 AM,26.6,21.2,80,30.10,10.0,Calm,Calm,-,N/A,,Clear,0,2013-11-28 09:15:00
2:35 AM,26.6,21.2,80,30.11,10.0,Calm,Calm,-,N/A,,Clear,0,2013-11-28 09:35:00
2:55 AM,26.6,21.2,80,30.11,10.0,Calm,Calm,-,N/A,,Clear,0,2013-11-28 09:55:00
3:15 AM,24.8,19.4,80,30.11,10.0,Calm,Calm,-,N/A,,Clear,0,2013-11-28 10:15:00
3:35 AM,24.8,21.2,86,30.10,10.0,South,4.6,-,N/A,,Clear,190,2013-11-28 10:35:00
3:55 AM,26.6,21.2,80,30.10,10.0,SSW,3.5,-,N/A,,Clear,200,2013-11-28 10:55:00
4:15 AM,26.6,21.2,80,30.10,10.0,Calm,Calm,-,N/A,,Clear,0,2013-11-28 11:15:00
4:35 AM,26.6,21.2,80,30.10,10.0,South,3.5,-,N/A,,Clear,190,2013-11-28 11:35:00
4:55 AM,26.6,21.2,80,30.10,10.0,Calm,Calm,-,N/A,,Clear,0,2013-11-28 11:55:00
5:15 AM,23.0,19.4,86,30.10,10.0,Calm,Calm,-,N/A,,Clear,0,2013-11-28 12:15:00
5:35 AM,23.0,19.4,86,30.10,10.0,Calm,Calm,-,N/A,,Clear,0,2013-11-28 12:35:00
5:55 AM,24.8,19.4,80,30.10,10.0,Calm,Calm,-,N/A,,Clear,0,2013-11-28 12:55:00
6:15 AM,24.8,21.2,86,30.10,10.0,Calm,Calm,-,N/A,,Clear,0,2013-11-28 13:15:00
6:35 AM,21.2,17.6,86,30.10,10.0,SE,3.5,-,N/A,,Clear,140,2013-11-28 13:35:00
6:55 AM,23.0,19.4,86,30.10,10.0,SSE,4.6,-,N/A,,Clear,160,2013-11-28 13:55:00
7:15 AM,21.2,19.4,93,30.09,10.0,Calm,Calm,-,N/A,,Clear,0,2013-11-28 14:15:00
7:35 AM,21.2,19.4,93,30.09,10.0,Calm,Calm,-,N/A,,Clear,0,2013-11-28 14:35:00
7:55 AM,24.8,21.2,86,30.09,10.0,Calm,Calm,-,N/A,,Clear,0,2013-11-28 14:55:00
8:15 AM,26.6,21.2,80,30.10,10.0,Calm,Calm,-,N/A,,Clear,0,2013-11-28 15:15:00
8:35 AM,26.6,21.2,80,30.10,10.0,South,3.5,-,N/A,,Clear,170,2013-11-28 15:35:00
8:55 AM,28.4,23.0,80,30.10,10.0,SSE,6.9,-,N/A,,Clear,150,2013-11-28 15:55:00
9:15 AM,33.8,24.8,70,30.10,10.0,SE,8.1,-,N/A,,Clear,140,2013-11-28 16:15:00
9:35 AM,35.6,24.8,65,30.10,10.0,ESE,4.6,-,N/A,,Clear,120,2013-11-28 16:35:00
9:55 AM,33.8,26.6,75,30.10,10.0,NNW,4.6,-,N/A,,Clear,340,2013-11-28 16:55:00
10:15 AM,35.6,26.6,70,30.09,10.0,Calm,Calm,-,N/A,,Clear,0,2013-11-28 17:15:00
10:35 AM,37.4,26.6,65,30.09,10.0,Calm,Calm,-,N/A,,Clear,0,2013-11-28 17:35:00
10:55 AM,39.2,26.6,61,30.08,10.0,Calm,Calm,-,N/A,,Clear,0,2013-11-28 17:55:00
11:15 AM,39.2,26.6,61,30.07,10.0,Calm,Calm,-,N/A,,Clear,0,2013-11-28 18:15:00
11:35 AM,42.8,26.6,53,30.07,10.0,Calm,Calm,-,N/A,,Clear,0,2013-11-28 18:35:00
11:55 AM,44.6,28.4,53,30.06,10.0,Calm,Calm,-,N/A,,Clear,0,2013-11-28 18:55:00
12:15 PM,44.6,26.6,49,30.06,10.0,North,3.5,-,N/A,,Clear,10,2013-11-28 19:15:00
12:35 PM,44.6,28.4,53,30.05,10.0,North,4.6,-,N/A,,Clear,10,2013-11-28 19:35:00
12:55 PM,44.6,30.2,57,30.04,10.0,North,3.5,-,N/A,,Clear,360,2013-11-28 19:55:00
1:15 PM,44.6,28.4,53,30.04,10.0,East,5.8,-,N/A,,Clear,90,2013-11-28 20:15:00
1:35 PM,44.6,28.4,53,30.03,10.0,Calm,Calm,-,N/A,,Clear,0,2013-11-28 20:35:00
1:55 PM,42.8,28.4,57,30.03,10.0,North,3.5,-,N/A,,Clear,350,2013-11-28 20:55:00
2:15 PM,39.2,28.4,65,30.03,10.0,NE,4.6,-,N/A,,Clear,40,2013-11-28 21:15:00
2:35 PM,37.4,30.2,75,30.03,10.0,NE,3.5,-,N/A,,Clear,40,2013-11-28 21:35:00
2:55 PM,37.4,30.2,75,30.03,10.0,Calm,Calm,-,N/A,,Clear,0,2013-11-28 21:55:00
3:15 PM,37.4,30.2,75,30.03,10.0,Calm,Calm,-,N/A,,Clear,0,2013-11-28 22:15:00
3:35 PM,37.4,30.2,75,30.03,10.0,Calm,Calm,-,N/A,,Clear,0,2013-11-28 22:35:00
3:55 PM,37.4,28.4,70,30.03,10.0,Calm,Calm,-,N/A,,Clear,0,2013-11-28 22:55:00
4:15 PM,35.6,28.4,75,30.03,10.0,Calm,Calm,-,N/A,,Clear,0,2013-11-28 23:15:00
4:35 PM,37.4,28.4,70,30.03,10.0,Calm,Calm,-,N/A,,Clear,0,2013-11-28 23:35:00
4:55 PM,35.6,28.4,75,30.03,10.0,South,3.5,-,N/A,,Clear,180,2013-11-28 23:55:00
5:15 PM,37.4,28.4,70,30.03,10.0,South,4.6,-,N/A,,Clear,170,2013-11-29 00:15:00
5:35 PM,35.6,28.4,75,30.03,10.0,Calm,Calm,-,N/A,,Clear,0,2013-11-29 00:35:00
5:55 PM,35.6,28.4,75,30.03,10.0,Calm,Calm,-,N/A,,Clear,0,2013-11-29 00:55:00
6:15 PM,33.8,28.4,81,30.03,10.0,Calm,Calm,-,N/A,,Clear,0,2013-11-29 01:15:00
6:35 PM,33.8,28.4,81,30.03,10.0,NNW,3.5,-,N/A,,Clear,340,2013-11-29 01:35:00
6:55 PM,33.8,28.4,81,30.03,10.0,Calm,Calm,-,N/A,,Clear,0,2013-11-29 01:55:00
7:15 PM,33.8,28.4,81,30.02,10.0,Calm,Calm,-,N/A,,Clear,0,2013-11-29 02:15:00
7:35 PM,33.8,28.4,81,30.03,10.0,Calm,Calm,-,N/A,,Clear,0,2013-11-29 02:35:00
8:15 PM,32.0,28.4,87,30.03,10.0,Calm,Calm,-,N/A,,Clear,0,2013-11-29 03:15:00
8:35 PM,32.0,28.4,87,30.03,10.0,Calm,Calm,-,N/A,,Clear,0,2013-11-29 03:35:00
8:55 PM,35.6,28.4,75,30.03,-9999.0,Calm,Calm,-,N/A,,Clear,0,2013-11-29 03:55:00
9:15 PM,33.8,28.4,81,30.03,10.0,Calm,Calm,-,N/A,,Clear,0,2013-11-29 04:15:00
9:35 PM,33.8,28.4,81,30.03,-9999.0,NNW,4.6,-,N/A,,Clear,330,2013-11-29 04:35:00
9:55 PM,33.8,28.4,81,30.04,10.0,NNE,3.5,-,N/A,,Clear,20,2013-11-29 04:55:00
10:15 PM,30.2,26.6,86,30.04,10.0,NNE,5.8,-,N/A,,Clear,20,2013-11-29 05:15:00
10:35 PM,30.2,26.6,86,30.05,10.0,Calm,Calm,-,N/A,,Clear,0,2013-11-29 05:35:00
10:55 PM,30.2,26.6,86,30.05,10.0,NNE,3.5,-,N/A,,Partly Cloudy,30,2013-11-29 05:55:00
11:15 PM,30.2,26.6,86,30.04,10.0,South,4.6,-,N/A,,Partly Cloudy,190,2013-11-29 06:15:00
11:35 PM,30.2,28.4,93,30.05,10.0,NNE,4.6,-,N/A,,Clear,30,2013-11-29 06:35:00
11:55 PM,32.0,28.4,87,30.04,10.0,South,4.6,-,N/A,,Clear,190,2013-11-29 06:55:00